1491192000.9,26336,14.94,74096.0,-2.91,-26.49,-26.65,0,*56
1491192002.13,26337,14.94,74094.8,-2.95,-26.39,-26.55,0,*57
1491192003.35,26338,14.94,74098.5,-2.91,-26.49,-26.65,0,*58
1491192004.58,26339,14.94,74098.0,-2.95,-26.39,-26.55,0,*59
1491192005.78,26340,14.94,74096.3,-2.95,-26.23,-26.49,0,*51
1491192006.99,26341,14.94,74094.0,-2.95,-26.23,-26.39,0,*57
1491192008.23,26342,14.94,74098.0,-2.95,-26.33,-26.49,0,*52
1491192009.43,26343,14.94,74094.3,-2.91,-26.23,-26.49,0,*56
1491192010.67,26344,14.94,74096.3,-2.91,-26.33,-26.49,0,*50
1491192011.88,26345,14.94,74096.0,-2.95,-26.39,-26.65,0,*51
1491192013.11,26346,14.94,74096.5,-2.95,-26.33,-26.49,0,*56
1491192014.31,26347,14.94,74098.0,-2.95,-26.23,-26.49,0,*56
1491192015.52,26348,14.94,74096.8,-2.95,-26.23,-26.39,0,*5E
1491192016.76,26349,14.94,74094.5,-2.91,-26.23,-26.33,0,*51
1491192017.97,26350,14.94,74098.0,-2.95,-26.39,-26.65,0,*55
1491192019.19,26351,14.94,74094.8,-2.91,-26.07,-26.39,0,*54
1491192020.42,26352,14.94,74094.5,-2.95,-26.33,-26.49,0,*53
1491192021.66,26353,14.94,74096.3,-2.95,-26.49,-26.55,0,*52
1491192022.89,26354,14.94,74094.5,-2.91,-26.49,-26.55,0,*51
1491192024.13,26355,14.94,74096.0,-2.95,-26.39,-26.55,0,*53
1491192025.34,26356,14.94,74098.5,-2.91,-26.39,-26.49,0,*59
1491192026.55,26357,14.94,74096.3,-2.95,-26.07,-26.39,0,*56
1491192027.79,26358,14.94,74094.8,-2.91,-26.33,-26.49,0,*5D
1491192029.06,26359,14.94,74094.0,-2.91,-26.33,-26.55,0,*51
1491192030.3,26360,14.94,74096.3,-2.91,-26.33,-26.49,0,*56
1491192031.5,26361,14.94,74094.3,-2.91,-26.39,-26.49,0,*5D
1491192032.71,26362,14.94,74096.0,-2.95,-26.39,-26.49,0,*5A
1491192033.95,26363,14.94,74096.5,-2.95,-26.33,-26.49,0,*51
1491192035.2,26364,14.94,74096.5,-2.91,-26.55,-26.55,0,*5F
1491192036.42,26365,14.94,74096.5,-2.91,-26.65,-26.65,0,*5E
1491192037.68,26366,14.94,74094.8,-2.95,-26.55,-26.71,0,*5F
1491192038.93,26367,14.94,74096.0,-2.95,-26.55,-26.55,0,*58
1491192040.15,26368,14.94,74096.8,-2.95,-26.65,-26.65,0,*57
1491192041.4,26369,14.94,74098.0,-2.91,-26.55,-26.55,0,*52
1491192042.64,26370,14.94,74098.8,-2.95,-26.33,-26.49,0,*53
1491192043.85,26371,14.94,74096.8,-2.95,-26.39,-26.49,0,*58
1491192045.07,26372,14.94,74098.3,-2.95,-26.55,-26.49,0,*51
1491192046.28,26373,14.94,74094.0,-2.95,-26.49,-26.49,0,*5D
1491192047.49,26374,14.94,74096.8,-2.91,-26.49,-26.49,0,*5E
1491192048.73,26375,14.94,74096.3,-2.95,-26.49,-26.55,0,*56
1491192049.98,26376,14.94,74094.5,-2.95,-26.55,-26.55,0,*58
1491192051.22,26377,14.94,74098.5,-2.95,-26.49,-26.55,0,*54
1491192052.46,26378,14.94,74098.8,-2.95,-26.33,-26.39,0,*5C
1491192053.66,26379,14.94,74096.3,-2.91,-26.23,-26.23,0,*53
1491192054.91,26380,14.94,74094.3,-2.95,-26.33,-26.39,0,*5B
1491192056.12,26381,14.94,74098.0,-2.95,-26.49,-26.49,0,*50
1491192057.35,26382,14.94,74096.5,-2.95,-26.55,-26.49,0,*5E
1491192058.57,26383,14.94,74098.0,-2.95,-26.55,-26.49,0,*5F
1491192059.81,26384,14.94,74096.3,-2.95,-26.33,-26.49,0,*58
1491192061.06,26385,14.94,74096.8,-2.95,-26.33,-26.39,0,*5E
1491192062.27,26386,14.94,74096.3,-2.95,-26.39,-26.39,0,*57
1491192063.53,26387,14.94,74096.5,-2.97,-26.39,-26.29,0,*55
1491192064.8,26388,14.94,74098.3,-2.97,-26.29,-26.39,0,*5A
1491192066.07,26389,14.94,74096.8,-2.97,-26.55,-26.55,0,*5A
1491192067.3,26390,14.94,74098.0,-2.97,-26.45,-26.45,0,*52
1491192068.52,26391,14.94,74096.8,-2.95,-26.39,-26.39,0,*51
1491192069.73,26392,14.94,74094.5,-2.95,-26.49,-26.49,0,*52
1491192070.93,26393,14.94,74098.0,-2.95,-26.39,-26.49,0,*54
1491192072.19,26394,14.94,74098.3,-2.97,-26.45,-26.55,0,*57
1491192073.42,26395,14.94,74096.0,-2.97,-26.45,-26.39,0,*5C
1491192074.65,26396,14.94,74098.5,-2.97,-26.45,-26.45,0,*54
1491192075.87,26397,14.94,74098.8,-2.99,-26.39,-26.39,0,*5B
1491192077.09,26398,14.94,74096.5,-2.95,-26.55,-26.49,0,*55
1491192078.31,26399,14.94,74096.5,-2.95,-26.49,-26.39,0,*5E
1491192079.53,26400,14.94,74098.0,-2.95,-26.49,-26.39,0,*59
1491192080.76,26401,14.94,74098.0,-2.97,-26.39,-26.23,0,*56
1491192082.0,26402,14.94,74094.8,-2.97,-26.39,-26.39,0,*5E
1491192083.23,26403,14.94,74098.0,-2.97,-26.39,-26.39,0,*5F
1491192084.44,26404,14.94,74096.5,-2.95,-26.39,-26.49,0,*5D
1491192085.67,26405,14.94,74094.0,-2.97,-26.45,-26.45,0,*59
1491192086.95,26406,14.94,74094.5,-2.97,-26.13,-26.13,0,*5A
1491192088.19,26407,14.94,74094.8,-2.97,-26.39,-26.23,0,*50
1491192089.42,26408,14.94,74094.3,-2.97,-26.39,-26.39,0,*54
1491192090.68,26409,14.94,74098.0,-2.97,-26.29,-26.23,0,*5F
1491192091.96,26410,14.94,74094.3,-2.97,-26.55,-26.29,0,*56
1491192093.2,26411,14.94,74096.5,-2.97,-26.45,-26.39,0,*57
1491192094.46,26412,14.94,74092.5,-2.97,-26.39,-26.29,0,*5E
1491192095.66,26413,14.94,74096.8,-2.95,-26.23,-26.07,0,*5A
1491192096.91,26414,14.94,74096.0,-2.91,-26.39,-26.33,0,*55
1491192098.14,26415,14.94,74092.5,-2.97,-26.61,-26.45,0,*5E
1491192099.37,26416,14.94,74098.8,-2.97,-26.61,-26.45,0,*5D
1491192100.6,26417,14.94,74096.3,-2.97,-26.23,-26.03,0,*58
1491192101.83,26418,14.94,74100.5,-2.97,-26.23,-26.07,0,*53
1491192103.09,26419,14.94,74094.8,-2.97,-26.13,-26.03,0,*55
1491192104.32,26420,14.94,74094.8,-2.95,-26.23,-26.17,0,*5B
1491192105.6,26421,14.94,74096.5,-2.97,-26.55,-26.13,0,*5D
1491192106.85,26422,14.94,74098.8,-2.95,-26.17,-26.03,0,*5B
1491192108.05,26423,14.94,74096.0,-2.95,-26.23,-26.03,0,*5D
1491192109.29,26424,14.94,74096.5,-2.97,-26.39,-26.23,0,*51
1491192110.55,26425,14.94,74098.8,-2.97,-26.39,-26.13,0,*53
1491192111.81,26426,14.94,74092.8,-2.99,-26.29,-26.13,0,*5F
1491192113.07,26427,14.94,74098.5,-2.97,-26.13,-26.07,0,*5C
1491192114.34,26428,14.94,74098.3,-2.95,-26.33,-25.97,0,*59
1491192115.6,26429,14.94,74098.8,-2.95,-26.33,-26.17,0,*53
1491192116.84,26430,14.94,74096.3,-2.95,-26.49,-26.17,0,*56
1491192118.05,26431,14.94,74096.0,-2.95,-26.23,-26.07,0,*5A
1491192119.29,26432,14.94,74098.0,-2.95,-26.33,-26.07,0,*58
1491192120.55,26433,14.94,74098.8,-2.97,-26.45,-26.13,0,*5F
1491192121.75,26434,14.94,74096.5,-2.95,-26.23,-25.87,0,*54
1491192122.99,26435,14.94,74094.8,-2.95,-26.17,-25.87,0,*52
1491192124.23,26436,14.94,74098.3,-2.95,-26.33,-26.03,0,*58
1491192125.49,26437,14.94,74098.3,-2.97,-26.45,-26.13,0,*5B
1491192126.75,26438,14.94,74098.0,-2.97,-26.45,-26.13,0,*54
1491192127.98,26439,14.94,74094.3,-2.99,-26.55,-26.23,0,*59
1491192129.24,26440,14.94,74096.3,-2.97,-26.45,-26.13,0,*5B
1491192130.47,26441,14.94,74094.0,-2.97,-26.23,-26.03,0,*5B
1491192131.68,26442,14.94,74096.5,-2.99,-26.39,-26.07,0,*59
1491192132.94,26443,14.94,74094.3,-2.97,-26.45,-26.13,0,*58
1491192134.21,26444,14.94,74096.0,-2.97,-26.29,-26.03,0,*54
1491192135.47,26445,14.94,74094.8,-2.97,-26.29,-26.03,0,*55
1491192136.76,26446,14.94,74094.3,-2.97,-26.13,-25.75,0,*5D
1491192137.98,26447,14.94,74098.3,-2.97,-26.23,-25.87,0,*52
1491192139.24,26448,14.94,74094.0,-2.97,-26.29,-25.91,0,*50
1491192140.45,26449,14.94,74092.8,-2.95,-26.39,-26.03,0,*5A
1491192141.69,26450,14.94,74094.3,-2.97,-26.39,-26.03,0,*50
1491192142.96,26451,14.94,74096.8,-2.97,-26.29,-26.03,0,*50
1491192144.21,26452,14.94,74096.8,-2.97,-26.23,-25.71,0,*5F
1491192145.5,26453,14.94,74094.3,-2.97,-26.13,-25.75,0,*59
1491192146.76,26454,14.94,74092.3,-2.97,-26.29,-25.91,0,*5D
1491192148.02,26455,14.94,74098.0,-2.95,-26.33,-25.81,0,*54
1491192149.26,26456,14.94,74096.8,-2.95,-26.33,-25.87,0,*51
1491192150.53,26457,14.94,74096.5,-2.95,-26.33,-25.81,0,*56
1491192151.75,26458,14.94,74096.3,-2.95,-26.07,-25.65,0,*54
1491192152.99,26459,14.94,74096.5,-2.95,-26.07,-25.71,0,*50
1491192154.22,26460,14.94,74098.5,-2.95,-26.23,-25.81,0,*53
1491192155.46,26461,14.94,74096.5,-2.95,-26.07,-25.71,0,*5B
1491192156.7,26462,14.94,74096.5,-2.95,-26.33,-25.87,0,*56
1491192157.93,26463,14.94,74096.0,-2.95,-26.23,-25.71,0,*5F
1491192159.2,26464,14.94,74094.8,-2.95,-26.33,-25.81,0,*56
1491192160.42,26465,14.94,74098.5,-2.95,-26.07,-25.65,0,*5A
1491192161.68,26466,14.94,74094.0,-2.95,-26.17,-25.71,0,*5D
1491192162.92,26467,14.94,74092.0,-2.95,-26.39,-25.81,0,*5F
1491192164.13,26468,14.94,74098.8,-2.95,-26.39,-25.87,0,*56
1491192165.34,26469,14.94,74098.0,-2.95,-26.39,-25.87,0,*57
1491192166.55,26470,14.94,74096.5,-2.95,-26.07,-25.65,0,*5E
1491192167.8,26471,14.94,74096.0,-2.95,-26.03,-25.55,0,*58
1491192169.03,26472,14.94,74098.8,-2.97,-26.45,-25.91,0,*53
1491192170.24,26473,14.94,74098.8,-2.95,-26.39,-25.87,0,*5C
1491192171.48,26474,14.94,74096.3,-2.95,-26.39,-25.81,0,*5D
1491192172.69,26475,14.94,74094.0,-2.95,-26.49,-25.87,0,*5D
1491192173.92,26476,14.94,74094.5,-2.99,-26.55,-25.91,0,*58
1491192175.17,26477,14.94,74094.0,-2.97,-26.55,-25.91,0,*57
1491192176.43,26478,14.94,74098.0,-2.97,-26.39,-25.75,0,*58
1491192177.69,26479,14.94,74098.8,-2.97,-26.23,-25.71,0,*56
1491192178.92,26480,14.94,74094.5,-2.97,-26.45,-25.87,0,*59
1491192180.21,26481,14.94,74096.0,-2.97,-26.29,-25.75,0,*5F
1491192181.44,26482,14.94,74098.0,-2.97,-26.45,-25.87,0,*5B
1491192182.7,26483,14.94,74096.3,-2.97,-26.45,-25.75,0,*57
1491192183.95,26484,14.94,74096.5,-2.95,-26.39,-25.71,0,*5D
1491192185.23,26485,14.94,74094.3,-2.97,-26.13,-25.45,0,*51
1491192186.52,26486,14.94,74098.5,-2.97,-26.29,-25.71,0,*5C
1491192187.78,26487,14.94,74094.3,-2.97,-26.45,-25.71,0,*57
1491192189.04,26488,14.94,74094.3,-2.97,-26.45,-25.71,0,*58
1491192190.25,26489,14.94,74098.5,-2.99,-26.23,-25.61,0,*56
1491192191.52,26490,14.94,74096.3,-2.97,-26.29,-25.61,0,*5A
1491192192.78,26491,14.94,74096.0,-2.97,-26.13,-25.61,0,*52
1491192194.01,26492,14.94,74094.8,-2.97,-26.23,-25.61,0,*52
1491192195.28,26493,14.94,74098.8,-2.97,-26.39,-25.75,0,*5D
1491192196.54,26494,14.94,74096.3,-2.97,-26.29,-25.61,0,*5E
1491192197.81,26495,14.94,74098.0,-2.97,-26.29,-25.61,0,*5F
1491192199.07,26496,14.94,74098.5,-2.97,-26.45,-25.75,0,*53
1491192200.31,26497,14.94,74094.3,-2.95,-26.39,-25.71,0,*5F
1491192201.6,26498,14.94,74096.5,-2.97,-26.55,-25.75,0,*5C
1491192202.86,26499,14.94,74098.0,-2.97,-26.45,-25.71,0,*58
1491192204.12,26500,14.94,74098.0,-2.97,-26.39,-25.71,0,*52
1491192205.39,26501,14.94,74096.8,-2.97,-26.45,-25.75,0,*5C
1491192206.68,26502,14.94,74094.0,-2.97,-26.29,-25.71,0,*51
1491192207.89,26503,14.94,74094.8,-2.99,-26.23,-25.61,0,*55
1491192209.12,26504,14.94,74098.8,-2.97,-26.23,-25.61,0,*5C
1491192210.38,26505,14.94,74094.5,-2.97,-26.13,-25.61,0,*5E
1491192211.63,26506,14.94,74092.8,-2.99,-26.29,-25.61,0,*5A
1491192212.86,26507,14.94,74092.8,-2.97,-26.45,-25.61,0,*5F
1491192214.13,26508,14.94,74096.5,-2.97,-26.45,-25.71,0,*51
1491192215.39,26509,14.94,74092.3,-2.97,-26.13,-25.61,0,*52
1491192216.68,26510,14.94,74094.8,-2.97,-26.13,-25.55,0,*5D
1491192217.91,26511,14.94,74098.0,-2.97,-26.23,-25.61,0,*58
1491192219.15,26512,14.94,74098.5,-2.97,-26.45,-25.61,0,*5B
1491192220.42,26513,14.94,74094.0,-2.97,-26.39,-25.71,0,*50
1491192221.71,26514,14.94,74092.8,-2.97,-26.29,-25.71,0,*56
1491192222.99,26515,14.94,74096.0,-2.97,-26.29,-25.71,0,*57
1491192224.24,26516,14.94,74092.5,-2.99,-26.39,-25.71,0,*5B
1491192225.48,26517,14.94,74096.0,-2.99,-26.39,-25.75,0,*5E
1491192226.71,26518,14.94,74094.8,-2.97,-26.23,-25.61,0,*51
1491192227.93,26519,14.94,74094.0,-2.99,-26.39,-25.61,0,*55
1491192229.17,26520,14.94,74094.0,-2.97,-26.39,-25.61,0,*51
1491192230.4,26521,14.94,74094.0,-2.97,-26.23,-25.61,0,*5B
1491192231.66,26522,14.94,74092.8,-2.97,-26.29,-25.61,0,*52
1491192232.91,26523,14.94,74094.5,-2.99,-26.39,-25.75,0,*59
1491192234.19,26524,14.94,74094.5,-2.97,-26.29,-25.71,0,*55
1491192235.43,26525,14.94,74092.3,-2.97,-26.23,-25.61,0,*5F
1491192236.69,26526,14.94,74096.3,-2.97,-26.29,-25.61,0,*56
1491192237.95,26527,14.94,74096.5,-2.97,-26.13,-25.39,0,*53
1491192239.22,26528,14.94,74092.8,-2.97,-26.29,-25.61,0,*58
1491192240.51,26529,14.94,74094.5,-2.97,-26.29,-25.71,0,*58
1491192241.77,26530,14.94,74094.0,-2.97,-26.23,-25.55,0,*5C
1491192243.03,26531,14.94,74096.0,-2.99,-26.29,-25.71,0,*5F
1491192244.3,26532,14.94,74092.3,-2.97,-26.39,-25.71,0,*53
1491192245.58,26533,14.94,74094.5,-2.97,-26.29,-25.71,0,*53
1491192246.85,26534,14.94,74092.8,-2.97,-26.39,-25.71,0,*55
1491192248.14,26535,14.94,74094.8,-2.97,-26.29,-25.71,0,*55
1491192249.43,26536,14.94,74098.0,-2.97,-26.29,-25.71,0,*56
1491192250.66,26537,14.94,74096.5,-2.99,-26.23,-25.71,0,*53
1491192251.93,26538,14.94,74098.0,-2.99,-26.13,-25.71,0,*5F
1491192253.13,26539,14.94,74096.0,-2.99,-26.45,-25.87,0,*54
1491192254.4,26540,14.94,74092.8,-2.97,-26.39,-25.75,0,*52
1491192255.63,26541,14.94,74094.8,-2.99,-26.55,-25.87,0,*5A
1491192256.92,26542,14.94,74098.3,-2.97,-26.13,-25.71,0,*5C
1491192258.16,26543,14.94,74092.3,-2.99,-26.13,-25.61,0,*52
1491192259.37,26544,14.94,74098.3,-2.99,-26.23,-25.61,0,*56
1491192260.61,26545,14.94,74096.3,-2.99,-26.13,-25.61,0,*54
1491192261.87,26546,14.94,74094.5,-2.99,-26.13,-25.55,0,*50
1491192263.11,26547,14.94,74096.5,-2.99,-26.13,-25.61,0,*56
1491192264.36,26548,14.94,74094.3,-2.99,-26.13,-25.61,0,*59
1491192265.62,26549,14.94,74094.3,-2.99,-26.29,-25.71,0,*50
1491192266.89,26550,14.94,74094.0,-2.97,-26.39,-25.75,0,*53
1491192268.09,26551,14.94,74096.8,-2.99,-26.45,-25.87,0,*5A
1491192269.33,26552,14.94,74098.3,-2.99,-26.39,-25.75,0,*5F
1491192270.6,26553,14.94,74094.8,-2.99,-26.13,-25.55,0,*54
1491192271.86,26554,14.94,74092.0,-2.97,-26.23,-25.71,0,*58
1491192273.11,26555,14.94,74094.5,-2.97,-26.23,-25.71,0,*59
1491192274.37,26556,14.94,74094.8,-2.97,-26.23,-25.75,0,*5E
1491192275.6,26557,14.94,74096.3,-2.99,-26.29,-25.87,0,*56
1491192276.84,26558,14.94,74092.3,-2.99,-26.23,-25.71,0,*5A
1491192278.13,26559,14.94,74092.5,-2.97,-26.13,-25.55,0,*50
1491192279.39,26560,14.94,74096.3,-2.97,-26.07,-25.55,0,*5F
1491192280.63,26561,14.94,74092.5,-2.97,-26.07,-25.61,0,*59
1491192281.89,26562,14.94,74094.3,-2.97,-26.29,-25.87,0,*5E
1491192283.15,26563,14.94,74098.0,-2.97,-26.23,-25.71,0,*5C
1491192284.4,26564,14.94,74096.3,-2.97,-26.29,-25.87,0,*58
1491192285.66,26565,14.94,74096.8,-2.97,-26.13,-25.87,0,*50
1491192286.89,26566,14.94,74094.5,-2.97,-26.39,-25.91,0,*5C
1491192288.18,26567,14.94,74092.5,-2.97,-26.13,-25.71,0,*5B
1491192289.44,26568,14.94,74094.3,-2.97,-26.07,-25.75,0,*55
1491192290.71,26569,14.94,74092.3,-2.97,-26.29,-26.03,0,*5A
1491192291.96,26570,14.94,74096.3,-2.97,-26.13,-25.87,0,*54
1491192293.23,26571,14.94,74094.5,-2.99,-26.13,-25.71,0,*52
1491192294.51,26572,14.94,74094.8,-2.97,-26.13,-25.71,0,*5F
1491192295.73,26573,14.94,74096.0,-2.99,-26.39,-26.03,0,*5E
1491192296.96,26574,14.94,74094.5,-2.99,-26.23,-25.75,0,*50
1491192298.22,26575,14.94,74098.3,-2.97,-26.13,-25.91,0,*56
1491192299.42,26576,14.94,74092.0,-2.99,-26.23,-25.87,0,*5F
1491192300.68,26577,14.94,74094.3,-2.97,-26.29,-25.91,0,*5D
1491192301.9,26578,14.94,74098.0,-2.97,-26.23,-25.91,0,*58
1491192303.11,26579,14.94,74094.8,-2.99,-26.23,-25.87,0,*50
1491192304.38,26580,14.94,74094.8,-2.97,-26.03,-25.75,0,*57
1491192305.61,26581,14.94,74098.8,-2.97,-26.23,-26.03,0,*56
1491192306.87,26582,14.94,74096.0,-2.97,-26.29,-26.07,0,*5B
1491192308.1,26583,14.94,74094.3,-2.99,-26.45,-26.13,0,*5B
1491192309.39,26584,14.94,74094.5,-2.97,-26.29,-26.13,0,*58
1491192310.62,26585,14.94,74098.3,-2.99,-26.13,-25.91,0,*57
1491192311.85,26586,14.94,74096.3,-2.99,-26.23,-26.13,0,*5E
1491192313.11,26587,14.94,74092.5,-2.97,-26.29,-26.07,0,*5E
1491192314.37,26588,14.94,74094.3,-2.97,-26.39,-26.13,0,*55
1491192315.6,26589,14.94,74094.3,-2.99,-26.13,-25.87,0,*5C
1491192316.81,26590,14.94,74096.3,-2.99,-26.23,-26.03,0,*58
1491192318.05,26591,14.94,74094.8,-2.99,-26.13,-26.03,0,*5A
1491192319.29,26592,14.94,74096.0,-2.99,-26.13,-26.07,0,*5D
1491192320.52,26593,14.94,74094.0,-2.99,-26.29,-26.23,0,*53
1491192321.81,26594,14.94,74096.0,-2.97,-26.29,-26.13,0,*59
1491192323.04,26595,14.94,74096.8,-2.97,-26.39,-26.23,0,*5A
1491192324.3,26596,14.94,74094.8,-2.97,-26.13,-26.03,0,*53
1491192325.56,26597,14.94,74098.5,-2.97,-26.13,-26.07,0,*56
1491192326.81,26598,14.94,74098.8,-2.97,-26.29,-26.23,0,*56
1491192328.1,26599,14.94,74096.5,-2.97,-26.29,-26.13,0,*54
1491192329.35,26600,14.94,74092.8,-2.97,-26.23,-26.13,0,*5D
1491192330.58,26601,14.94,74092.8,-2.95,-26.23,-26.17,0,*5A
1491192331.84,26602,14.94,74094.3,-2.97,-26.23,-26.13,0,*5F
1491192333.08,26603,14.94,74094.3,-2.95,-26.07,-25.97,0,*55
1491192334.36,26604,14.94,74094.0,-2.97,-26.29,-26.13,0,*53
1491192335.62,26605,14.94,74098.0,-2.97,-26.29,-26.39,0,*5A
1491192336.85,26606,14.94,74098.3,-2.97,-26.23,-26.23,0,*58
1491192338.1,26607,14.94,74098.5,-2.97,-26.23,-26.13,0,*5A
1491192339.33,26608,14.94,74094.5,-2.99,-26.29,-26.23,0,*52
1491192340.62,26609,14.94,74094.5,-2.97,-26.29,-26.29,0,*57
1491192341.88,26610,14.94,74094.0,-2.99,-26.13,-26.13,0,*51
1491192343.13,26611,14.94,74094.8,-2.97,-26.23,-26.13,0,*5D
1491192344.36,26612,14.94,74094.3,-2.97,-26.23,-26.39,0,*56
1491192345.57,26613,14.94,74094.8,-2.99,-26.23,-26.23,0,*52
1491192346.85,26614,14.94,74096.3,-2.97,-26.29,-26.29,0,*5B
1491192348.11,26615,14.94,74098.8,-2.97,-26.23,-26.29,0,*50
1491192349.37,26616,14.94,74096.5,-2.99,-26.13,-26.13,0,*57
1491192350.59,26617,14.94,74098.0,-2.97,-26.23,-26.23,0,*58
1491192351.82,26618,14.94,74094.0,-2.97,-26.23,-26.23,0,*57
1491192353.05,26619,14.94,74094.3,-2.99,-26.13,-26.23,0,*5B
1491192354.28,26620,14.94,74094.0,-2.97,-26.39,-26.45,0,*57
1491192355.51,26621,14.94,74092.8,-2.97,-26.23,-26.39,0,*56
1491192356.74,26622,14.94,74096.5,-2.97,-26.23,-26.39,0,*55
1491192357.97,26623,14.94,74096.0,-2.99,-26.23,-26.29,0,*5B
1491192359.23,26624,14.94,74096.5,-2.97,-26.23,-26.29,0,*52
1491192360.46,26625,14.94,74098.8,-2.99,-26.13,-26.23,0,*54
1491192361.7,26626,14.94,74096.3,-2.97,-26.03,-26.23,0,*58
1491192362.94,26627,14.94,74094.0,-2.95,-26.03,-26.17,0,*5C
1491192364.18,26628,14.94,74094.8,-2.95,-26.07,-26.33,0,*51
1491192365.46,26629,14.94,74094.3,-2.97,-26.13,-26.29,0,*5C
1491192366.72,26630,14.94,74094.0,-2.97,-26.07,-26.13,0,*58
1491192367.95,26631,14.94,74094.3,-2.97,-26.07,-26.23,0,*5A
1491192369.19,26632,14.94,74094.8,-2.97,-26.23,-26.39,0,*54
1491192370.41,26633,14.94,74096.3,-2.97,-26.23,-26.45,0,*5E
1491192371.67,26634,14.94,74096.5,-2.97,-26.13,-26.45,0,*5A
1491192372.95,26635,14.94,74094.8,-2.97,-26.29,-26.55,0,*53
1491192374.2,26636,14.94,74094.3,-2.97,-26.13,-26.45,0,*58
1491192375.46,26637,14.94,74092.8,-2.97,-26.07,-26.29,0,*56
1491192376.69,26638,14.94,74098.3,-2.97,-26.07,-26.23,0,*53
1491192377.98,26639,14.94,74094.8,-2.97,-26.13,-26.29,0,*5D
1491192379.21,26640,14.94,74092.8,-2.97,-26.23,-26.39,0,*51
1491192380.47,26641,14.94,74094.5,-2.97,-26.39,-26.55,0,*51
1491192381.73,26642,14.94,74096.3,-2.97,-26.13,-26.39,0,*50
1491192382.98,26643,14.94,74092.0,-2.97,-26.13,-26.45,0,*5A
1491192384.25,26644,14.94,74096.0,-2.95,-26.17,-26.33,0,*5A
1491192385.49,26645,14.94,74092.0,-2.95,-26.17,-26.39,0,*51
1491192386.69,26646,14.94,74094.8,-2.95,-26.23,-26.49,0,*52
1491192387.89,26647,14.94,74096.8,-2.95,-26.23,-26.49,0,*53
1491192389.11,26648,14.94,74098.0,-2.95,-26.07,-26.39,0,*5D
1491192390.31,26649,14.94,74096.3,-2.95,-26.07,-26.23,0,*57
1491192391.55,26650,14.94,74092.8,-2.95,-26.17,-26.49,0,*52
1491192392.8,26651,14.94,74094.5,-2.97,-26.13,-26.45,0,*59
1491192394.08,26652,14.94,74098.0,-2.97,-26.13,-26.55,0,*5B
1491192395.33,26653,14.94,74092.8,-2.97,-26.23,-26.55,0,*59
1491192396.58,26654,14.94,74092.8,-2.97,-26.23,-26.55,0,*5E
1491192397.84,26655,14.94,74096.3,-2.97,-26.13,-26.39,0,*56
1491192399.1,26656,14.94,74096.0,-2.99,-26.13,-26.29,0,*5A
1491192400.31,26657,14.94,74096.5,-2.95,-26.07,-26.23,0,*58
1491192401.55,26658,14.94,74096.5,-2.95,-26.17,-26.49,0,*5A
1491192402.76,26659,14.94,74094.3,-2.95,-26.39,-26.65,0,*59
1491192404.02,26660,14.94,74092.0,-2.95,-26.17,-26.55,0,*5C
1491192405.24,26661,14.94,74092.8,-2.95,-26.23,-26.55,0,*5A
1491192406.47,26662,14.94,74092.3,-2.97,-26.23,-26.61,0,*5C
1491192407.75,26663,14.94,74094.0,-2.97,-26.29,-26.55,0,*50
1491192408.98,26664,14.94,74096.0,-2.95,-26.39,-26.81,0,*5D
1491192410.24,26665,14.94,74092.3,-2.97,-26.29,-26.61,0,*51
1491192411.5,26666,14.94,74092.5,-2.97,-26.39,-26.71,0,*52
1491192412.78,26667,14.94,74096.3,-2.97,-26.29,-26.71,0,*52
1491192414.04,26668,14.94,74096.5,-2.97,-26.29,-26.61,0,*5C
1491192415.26,26669,14.94,74094.3,-2.97,-26.23,-26.61,0,*57
1491192416.49,26670,14.94,74092.5,-2.99,-26.29,-26.61,0,*5B
1491192417.75,26671,14.94,74092.8,-2.97,-26.29,-26.61,0,*54
1491192419.02,26672,14.94,74094.8,-2.97,-26.03,-26.29,0,*53
1491192420.25,26673,14.94,74096.5,-2.97,-26.07,-26.45,0,*5C
1491192421.49,26674,14.94,74094.8,-2.97,-26.03,-26.45,0,*5F
1491192422.73,26675,14.94,74092.8,-2.97,-26.07,-26.39,0,*51
1491192423.99,26676,14.94,74092.0,-2.95,-25.97,-26.33,0,*50
1491192425.2,26677,14.94,74094.0,-2.95,-26.03,-26.49,0,*52
1491192426.44,26678,14.94,74098.0,-2.95,-26.07,-26.55,0,*54
1491192427.67,26679,14.94,74094.5,-2.95,-26.17,-26.65,0,*57
1491192428.91,26680,14.94,74092.3,-2.95,-26.17,-26.65,0,*51
1491192430.15,26681,14.94,74092.8,-2.95,-26.07,-26.55,0,*52
1491192431.38,26682,14.94,74096.8,-2.95,-26.07,-26.55,0,*51
1491192432.59,26683,14.94,74090.3,-2.95,-26.03,-26.49,0,*59
1491192433.83,26684,14.94,74092.0,-2.97,-26.07,-26.39,0,*5F
1491192435.08,26685,14.94,74092.0,-2.97,-26.07,-26.55,0,*54
1491192436.3,26686,14.94,74096.3,-2.95,-26.03,-26.49,0,*5C
1491192437.53,26687,14.94,74092.8,-2.95,-26.17,-26.65,0,*56
1491192438.8,26688,14.94,74092.3,-2.95,-26.33,-26.81,0,*55
1491192440.03,26689,14.94,74094.8,-2.95,-26.07,-26.55,0,*5A
1491192441.27,26690,14.94,74092.0,-2.91,-26.07,-26.55,0,*56
1491192442.5,26691,14.94,74092.5,-2.91,-26.07,-26.55,0,*57
1491192443.74,26692,14.94,74094.8,-2.95,-26.17,-26.65,0,*52
1491192444.97,26693,14.94,74092.3,-2.95,-26.23,-26.71,0,*51
1491192446.2,26694,14.94,74092.5,-2.95,-26.07,-26.55,0,*56
1491192447.44,26695,14.94,74090.3,-2.95,-26.03,-26.33,0,*53
1491192448.67,26696,14.94,74092.5,-2.95,-26.03,-26.39,0,*5A
1491192449.88,26697,14.94,74094.8,-2.91,-26.03,-26.49,0,*58
1491192451.12,26698,14.94,74092.0,-2.95,-26.03,-26.55,0,*5E
1491192452.34,26699,14.94,74092.3,-2.91,-26.03,-26.49,0,*56
1491192453.58,26700,14.94,74094.8,-2.91,-25.97,-26.39,0,*5E
1491192454.79,26701,14.94,74092.0,-2.91,-26.03,-26.49,0,*56
1491192456.03,26702,14.94,74096.0,-2.91,-25.97,-26.49,0,*5B
1491192457.24,26703,14.94,74092.3,-2.91,-26.07,-26.65,0,*5E
1491192458.48,26704,14.94,74092.8,-2.95,-26.17,-26.65,0,*5C
1491192459.69,26705,14.94,74094.8,-2.91,-26.23,-26.65,0,*5E
1491192460.89,26706,14.94,74094.3,-2.95,-26.23,-26.65,0,*59
1491192462.12,26707,14.94,74092.5,-2.91,-26.07,-26.55,0,*59
1491192463.36,26708,14.94,74096.0,-2.91,-26.07,-26.55,0,*56
1491192464.6,26709,14.94,74092.5,-2.91,-26.07,-26.55,0,*57
1491192465.86,26710,14.94,74094.3,-2.91,-26.17,-26.55,0,*5E
1491192467.07,26711,14.94,74088.0,-2.95,-26.07,-26.65,0,*59
1491192468.31,26712,14.94,74092.8,-2.91,-25.97,-26.39,0,*5D
1491192469.55,26713,14.94,74092.8,-2.91,-26.03,-26.55,0,*58
1491192470.76,26714,14.94,74092.8,-2.91,-26.23,-26.65,0,*5E
1491192472.02,26715,14.94,74094.8,-2.91,-26.17,-26.71,0,*5D
1491192473.28,26716,14.94,74092.5,-2.91,-26.17,-26.71,0,*5E
1491192474.5,26717,14.94,74092.8,-2.91,-26.07,-26.39,0,*52
1491192475.76,26718,14.94,74094.8,-2.89,-25.97,-26.45,0,*55
1491192477.02,26719,14.94,74096.0,-2.89,-25.91,-26.33,0,*53
1491192478.25,26720,14.94,74094.0,-2.87,-25.97,-26.49,0,*5C
1491192479.49,26721,14.94,74094.5,-2.89,-26.03,-26.49,0,*5D
1491192480.71,26722,14.94,74092.0,-2.91,-26.23,-26.71,0,*5E
1491192481.95,26723,14.94,74092.8,-2.91,-26.07,-26.71,0,*59
1491192483.16,26724,14.94,74094.5,-2.91,-26.07,-26.49,0,*55
1491192484.4,26725,14.94,74094.0,-2.89,-26.03,-26.45,0,*55
1491192485.65,26726,14.94,74092.3,-2.89,-26.13,-26.49,0,*5B
1491192486.87,26727,14.94,74092.5,-2.87,-26.03,-26.65,0,*5B
1491192488.11,26728,14.88,74088.5,-2.89,-26.03,-26.61,0,*5E
1491192489.32,26729,14.94,74094.5,-2.87,-26.03,-26.49,0,*5B
1491192490.57,26730,14.94,74092.3,-2.89,-26.13,-26.49,0,*5C
1491192491.81,26731,14.94,74092.0,-2.89,-26.03,-26.49,0,*5C
1491192493.04,26732,14.94,74094.5,-2.87,-26.13,-26.61,0,*5A
1491192494.26,26733,14.94,74094.5,-2.87,-26.03,-26.49,0,*50
1491192495.49,26734,14.94,74092.3,-2.87,-26.13,-26.61,0,*5C
1491192496.75,26735,14.94,74094.5,-2.87,-26.17,-26.77,0,*5E